Home   Weather   Sitka   Past weeks

Flag for USA Past Weather in Sitka, Alaska, USA — Yesterday and Last 2 Weeks

Now
35 °F

Light snow. Fog.


Feels Like: 24 °F
Forecast: 29 / 38 °F
Wind: 20 mph from Southeast

Location: Sitka Airport

Current Time: Dec 7, 2016 at 3:54:55 am

Latest Report: Dec 7, 2016 at 3:01 am


Visibility: 6 mi

Pressure: 30.26 "Hg

Humidity: 85%

Dew Point: 31 °F

Location of SitkaLocation

Past Weather in Sitka — Graph

°F

Sitka Temperature Yesterday

Maximum temperature yesterday: 37 °F (at 9:53 pm)
Minimum temperature yesterday: 22 °F (at 12:53 am)
Average temperature yesterday: 31 °F

High & Low Weather Summary for the Past Weeks

 TemperatureHumidityPressure
High48 °F (Nov 29, 9:53 am)93% (Nov 25, 4:53 am)30.41 "Hg (Nov 25, 4:53 am)
Low22 °F (Dec 5, 8:53 pm)53% (Nov 22, 1:53 pm)28.76 "Hg (Dec 2, 5:53 am)
Average40 °F75%29.60 "Hg
* Reported Nov 22 2:53 am — Dec 7 2:03 am, Sitka, Weather by CustomWeather, © 2016

Note: Actual official high and low records may vary slightly from our data, if they occured in-between our weather recording intervals... More about our weather records

Advertising

Sitka Weather History for the Previous 24 Hours

Scroll right to see more
 ConditionsComfort  
Time TempWeatherWind HumidityBarometerVisibility
2:03 am
Wed, Dec 7
34 °FLight snow. Fog.20 mph88%30.26 "Hg2 mi
1:53 am35 °FLight snow. Fog.22 mph85%30.26 "Hg4 mi
12:53 am36 °FLight snow. Overcast.21 mph79%30.26 "Hg9 mi
11:53 pm
Tue, Dec 6
35 °FLight snow. Overcast.21 mph82%30.26 "Hg4 mi
11:00 pm35 °FLight snow. Overcast.18 mph82%30.26 "Hg6 mi
9:53 pm37 °FMostly cloudy.20 mph70%30.26 "Hg10 mi
8:53 pm36 °FOvercast.20 mph70%30.25 "Hg9 mi
7:53 pm36 °FMostly cloudy.17 mph73%30.25 "Hg9 mi
6:53 pm36 °FMostly cloudy.17 mph73%30.26 "Hg9 mi
5:53 pm35 °FLight rain. Mostly cloudy.18 mph75%30.27 "Hg9 mi
4:53 pm35 °FLight snow. Mostly cloudy.14 mph75%30.28 "Hg4 mi
3:53 pm34 °FLight snow. Fog.16 mph85%30.28 "Hg1 mi
2:53 pm36 °FOvercast.14 mph70%30.28 "Hg10 mi
1:53 pm35 °FMostly cloudy.13 mph75%30.29 "Hg10 mi
12:53 pm35 °FMostly cloudy.12 mph75%30.30 "Hg10 mi
11:53 am34 °FOvercast.12 mph79%30.32 "Hg10 mi
11:01 am32 °FLight snow. Overcast.8 mph82%30.32 "Hg2 mi
9:53 am31 °FMostly cloudy.7 mph79%30.33 "Hg10 mi
9:03 am29 °FLight snow. Overcast.7 mph79%30.34 "Hg2 mi
8:53 am30 °FLight snow. More clouds than sun.7 mph75%30.34 "Hg4 mi
7:53 am28 °FOvercast.10 mph78%30.34 "Hg10 mi
6:53 am26 °FOvercast.5 mph81%30.36 "Hg10 mi
5:53 am27 °FMostly cloudy.5 mph81%30.37 "Hg10 mi
4:53 am26 °FOvercast.No wind81%30.38 "Hg10 mi
3:53 am24 °FOvercast.No wind84%30.38 "Hg10 mi
Weather by CustomWeather, © 2016

See weather overviewHow to use our weather pages